Zurück zum Katalog

FENGYUN 1C DEB

AktivPO
NORAD 30529·DEBRIS·🇨🇳 China

Gestartet May 10, 1999 von Taiyuan Satellite Launch Center

Loading…

Nächste Überflüge (nächste 24 Stunden)

TLE

AktuellSource: Space-Track

Epoche: Sep 14, 2026, 03:59 UTC

1 30529U 99025AJT 26257.16633140  .00000643  00000-0  61859-3 0  9995
2 30529  98.4754 152.6734 0228507 204.2671 154.7582 13.72298672977857

Verfolge FENGYUN 1C DEB in Echtzeit mit AllMySat

Download on the App Store